When you browse on this site, cookies collect data to enhance your experience and personalize the content and advertising you see.
Visit our Privacy Policy to learn more. By continuing to use the site, you agree to this use of cookies and data.

Stündliche Wetter Szolnok

Heute, 9 August, Sonntag

Zeit Temperatur Niederschläge Wind Luftdruck Luftfeuchtigkeit
00:00 +25°C° 0 mm 2 m/S 754 mmHg 66%
01:00 +24°C° 0 mm 2 m/S 754 mmHg 70%
02:00 +24°C° 0 mm 2 m/S 754 mmHg 73%
03:00 +23°C° 0 mm 2 m/S 754 mmHg 76%
04:00 +23°C° 0 mm 2 m/S 754 mmHg 79%
05:00 +24°C° 0 mm 2 m/S 754 mmHg 77%
06:00 +25°C° 0 mm 3 m/S 754 mmHg 75%
07:00 +26°C° 0 mm 3 m/S 755 mmHg 72%
08:00 +27°C° 0 mm 3 m/S 755 mmHg 67%
09:00 +28°C° 0 mm 3 m/S 755 mmHg 62%
10:00 +30°C° 0 mm 4 m/S 755 mmHg 57%
11:00 +31°C° 0 mm 3 m/S 754 mmHg 53%
12:00 +33°C° 0 mm 3 m/S 754 mmHg 49%
13:00 +34°C° 0 mm 3 m/S 754 mmHg 45%
14:00 +34°C° 0 mm 3 m/S 753 mmHg 44%
15:00 +34°C° 0 mm 3 m/S 753 mmHg 44%
16:00 +34°C° 0 mm 3 m/S 753 mmHg 43%
17:00 +31°C° 0 mm 3 m/S 753 mmHg 50%
18:00 +29°C° 0 mm 2 m/S 753 mmHg 56%
19:00 +28°C° 0 mm 2 m/S 753 mmHg 62%
20:00 +27°C° 0 mm 2 m/S 753 mmHg 65%
21:00 +26°C° 0 mm 2 m/S 753 mmHg 67%
22:00 +25°C° 0 mm 2 m/S 753 mmHg 69%
23:00 +25°C° 0 mm 2 m/S 753 mmHg 70%

Morgen, 10 August, Montag

Zeit Temperatur Niederschläge Wind Luftdruck Luftfeuchtigkeit
00:00 +24°C° 0 mm 2 m/S 753 mmHg 71%
01:00 +24°C° 0 mm 2 m/S 753 mmHg 72%
02:00 +23°C° 0 mm 2 m/S 753 mmHg 74%
03:00 +23°C° 0 mm 2 m/S 753 mmHg 75%
04:00 +21°C° 0 mm 2 m/S 753 mmHg 76%
05:00 +23°C° 0 mm 2 m/S 753 mmHg 73%
06:00 +24°C° 0 mm 2 m/S 753 mmHg 70%
07:00 +25°C° 0 mm 2 m/S 753 mmHg 67%
08:00 +27°C° 0 mm 2 m/S 753 mmHg 61%
09:00 +29°C° 0 mm 2 m/S 753 mmHg 55%
10:00 +30°C° 0 mm 3 m/S 754 mmHg 49%
11:00 +31°C° 0 mm 2 m/S 753 mmHg 47%
12:00 +32°C° 0 mm 2 m/S 753 mmHg 44%
13:00 +34°C° 0 mm 2 m/S 752 mmHg 41%
14:00 +34°C° 0 mm 2 m/S 752 mmHg 40%
15:00 +34°C° 0 mm 2 m/S 752 mmHg 39%
16:00 +34°C° 0 mm 2 m/S 752 mmHg 38%
17:00 +31°C° 0.2 mm 2 m/S 752 mmHg 47%
18:00 +29°C° 0.2 mm 3 m/S 752 mmHg 55%
19:00 +27°C° 0.2 mm 3 m/S 752 mmHg 63%
20:00 +26°C° 0.3 mm 3 m/S 752 mmHg 65%
21:00 +25°C° 0.3 mm 3 m/S 753 mmHg 68%
22:00 +24°C° 0.3 mm 3 m/S 753 mmHg 70%
23:00 +24°C° 0.1 mm 3 m/S 753 mmHg 74%

übermorgen, 11 August, Dienstag

Zeit Temperatur Niederschläge Wind Luftdruck Luftfeuchtigkeit
00:00 +23°C° 0.1 mm 2 m/S 753 mmHg 79%
01:00 +23°C° 0.1 mm 2 m/S 753 mmHg 83%
02:00 +21°C° 0.5 mm 2 m/S 753 mmHg 84%
03:00 +22°C° 0.5 mm 1 m/S 753 mmHg 85%
04:00 +22°C° 0.5 mm 1 m/S 753 mmHg 86%
05:00 +23°C° 0.4 mm 1 m/S 753 mmHg 83%
06:00 +24°C° 0.4 mm 1 m/S 753 mmHg 80%
07:00 +25°C° 0.4 mm 1 m/S 754 mmHg 76%
08:00 +26°C° 0 mm 2 m/S 754 mmHg 69%
09:00 +28°C° 0 mm 2 m/S 754 mmHg 63%
10:00 +29°C° 0 mm 2 m/S 754 mmHg 56%
11:00 +30°C° 0 mm 2 m/S 754 mmHg 52%
12:00 +31°C° 0 mm 2 m/S 754 mmHg 49%
13:00 +32°C° 0 mm 2 m/S 753 mmHg 46%
14:00 +32°C° 0 mm 2 m/S 753 mmHg 46%
15:00 +31°C° 0 mm 3 m/S 753 mmHg 47%
16:00 +31°C° 0 mm 3 m/S 753 mmHg 47%
17:00 +29°C° 1.2 mm 3 m/S 753 mmHg 56%
18:00 +27°C° 1.2 mm 3 m/S 753 mmHg 64%
19:00 +25°C° 1.2 mm 3 m/S 753 mmHg 72%
20:00 +24°C° 0.1 mm 2 m/S 753 mmHg 73%
21:00 +24°C° 0.1 mm 2 m/S 753 mmHg 73%
22:00 +23°C° 0.1 mm 2 m/S 754 mmHg 74%
23:00 +23°C° 0 mm 2 m/S 754 mmHg 76%

12 August, Mittwoch

Zeit Temperatur Niederschläge Wind Luftdruck Luftfeuchtigkeit
00:00 +21°C° 0 mm 2 m/S 753 mmHg 77%
01:00 +21°C° 0 mm 3 m/S 753 mmHg 79%
02:00 +21°C° 0 mm 3 m/S 753 mmHg 79%
03:00 +21°C° 0 mm 3 m/S 753 mmHg 79%
04:00 +20°C° 0 mm 3 m/S 753 mmHg 79%
05:00 +21°C° 0 mm 3 m/S 754 mmHg 76%
06:00 +22°C° 0 mm 4 m/S 754 mmHg 74%
07:00 +23°C° 0 mm 4 m/S 754 mmHg 72%
08:00 +25°C° 0 mm 4 m/S 754 mmHg 67%
09:00 +26°C° 0 mm 4 m/S 754 mmHg 62%
10:00 +28°C° 0 mm 4 m/S 754 mmHg 58%
11:00 +29°C° 0 mm 4 m/S 754 mmHg 53%
12:00 +30°C° 0 mm 4 m/S 754 mmHg 49%
13:00 +32°C° 0 mm 4 m/S 754 mmHg 44%
14:00 +32°C° 0 mm 4 m/S 753 mmHg 45%
15:00 +32°C° 0 mm 4 m/S 753 mmHg 46%
16:00 +32°C° 0 mm 4 m/S 753 mmHg 47%
17:00 +29°C° 0 mm 4 m/S 753 mmHg 53%
18:00 +27°C° 0 mm 3 m/S 753 mmHg 59%
19:00 +26°C° 0 mm 3 m/S 753 mmHg 65%
20:00 +25°C° 0 mm 3 m/S 753 mmHg 66%
21:00 +23°C° 0 mm 4 m/S 754 mmHg 67%
22:00 +22°C° 0 mm 4 m/S 754 mmHg 68%
23:00 +22°C° 0 mm 4 m/S 754 mmHg 68%

13 August, Donnerstag

Zeit Temperatur Niederschläge Wind Luftdruck Luftfeuchtigkeit
00:00 +21°C° 0 mm 4 m/S 754 mmHg 69%
01:00 +21°C° 0 mm 3 m/S 754 mmHg 70%
02:00 +20°C° 0 mm 3 m/S 754 mmHg 71%
03:00 +19°C° 0 mm 3 m/S 754 mmHg 73%
04:00 +19°C° 0 mm 3 m/S 754 mmHg 74%
05:00 +19°C° 0 mm 3 m/S 754 mmHg 72%
06:00 +20°C° 0 mm 3 m/S 754 mmHg 70%
07:00 +21°C° 0 mm 3 m/S 754 mmHg 68%
08:00 +24°C° 0 mm 3 m/S 754 mmHg 62%
09:00 +25°C° 0 mm 3 m/S 754 mmHg 56%
10:00 +27°C° 0 mm 3 m/S 754 mmHg 50%
11:00 +28°C° 0 mm 3 m/S 754 mmHg 47%
12:00 +29°C° 0 mm 3 m/S 753 mmHg 44%
13:00 +30°C° 0 mm 3 m/S 753 mmHg 42%
14:00 +30°C° 0 mm 2 m/S 753 mmHg 41%
15:00 +31°C° 0 mm 2 m/S 753 mmHg 40%
16:00 +31°C° 0 mm 2 m/S 752 mmHg 39%
17:00 +29°C° 0 mm 2 m/S 752 mmHg 42%
18:00 +27°C° 0 mm 2 m/S 752 mmHg 46%
19:00 +25°C° 0 mm 2 m/S 752 mmHg 49%
20:00 +25°C° 0 mm 1 m/S 753 mmHg 51%
21:00 +24°C° 0 mm 1 m/S 753 mmHg 53%
22:00 +23°C° 0 mm 1 m/S 753 mmHg 54%
23:00 +22°C° 0 mm 1 m/S 753 mmHg 58%

14 August, Freitag

Zeit Temperatur Niederschläge Wind Luftdruck Luftfeuchtigkeit
00:00 +21°C° 0 mm 2 m/S 753 mmHg 63%
01:00 +20°C° 0 mm 2 m/S 753 mmHg 67%
02:00 +20°C° 0 mm 2 m/S 753 mmHg 70%
03:00 +19°C° 0 mm 2 m/S 753 mmHg 73%
04:00 +18°C° 0 mm 2 m/S 752 mmHg 76%
05:00 +19°C° 0 mm 3 m/S 753 mmHg 74%
06:00 +20°C° 0 mm 3 m/S 753 mmHg 72%
07:00 +21°C° 0 mm 3 m/S 753 mmHg 70%
08:00 +24°C° 0 mm 3 m/S 753 mmHg 63%
09:00 +26°C° 0 mm 2 m/S 753 mmHg 57%
10:00 +28°C° 0 mm 2 m/S 753 mmHg 51%
11:00 +29°C° 0 mm 2 m/S 753 mmHg 47%
12:00 +30°C° 0 mm 2 m/S 752 mmHg 43%
13:00 +31°C° 0 mm 2 m/S 752 mmHg 40%
14:00 +31°C° 0 mm 2 m/S 752 mmHg 39%
15:00 +31°C° 0 mm 2 m/S 751 mmHg 39%
16:00 +31°C° 0 mm 2 m/S 751 mmHg 38%
17:00 +30°C° 0 mm 2 m/S 751 mmHg 43%
18:00 +28°C° 0 mm 2 m/S 751 mmHg 48%
19:00 +26°C° 0 mm 2 m/S 751 mmHg 53%
20:00 +25°C° 0 mm 2 m/S 751 mmHg 56%
21:00 +24°C° 0 mm 2 m/S 751 mmHg 59%
22:00 +24°C° 0 mm 2 m/S 752 mmHg 61%
23:00 +23°C° 0 mm 2 m/S 752 mmHg 62%
Mehr zeigen